EN

Hourly Weather Namadzi

Today, 19 January, Tuesday

Time Temperature Precipitation Wind Pressure Humidity
00:00 +22°C° 0.1 mm 1 mps 668 mmHg 87%
01:00 +21°C° 0.1 mm 1 mps 668 mmHg 88%
02:00 +21°C° 0.1 mm 1 mps 668 mmHg 89%
03:00 +21°C° 0 mm 1 mps 668 mmHg 89%
04:00 +19°C° 0 mm 0 mps 668 mmHg 90%
05:00 +19°C° 0 mm 0 mps 668 mmHg 90%
06:00 +20°C° 0 mm 0 mps 668 mmHg 86%
07:00 +21°C° 0 mm 0 mps 669 mmHg 83%
08:00 +23°C° 0 mm 0 mps 669 mmHg 79%
09:00 +26°C° 0.5 mm 1 mps 669 mmHg 75%
10:00 +27°C° 0.5 mm 1 mps 669 mmHg 72%
11:00 +28°C° 0.5 mm 1 mps 669 mmHg 68%
12:00 +28°C° 1.9 mm 1 mps 669 mmHg 71%
13:00 +27°C° 1.9 mm 1 mps 669 mmHg 74%
14:00 +27°C° 1.9 mm 1 mps 668 mmHg 77%
15:00 +26°C° 1.6 mm 1 mps 668 mmHg 81%
16:00 +26°C° 1.6 mm 1 mps 668 mmHg 84%
17:00 +25°C° 1.6 mm 1 mps 667 mmHg 88%
18:00 +24°C° 2.6 mm 1 mps 668 mmHg 89%
19:00 +24°C° 2.6 mm 1 mps 668 mmHg 89%
20:00 +23°C° 2.6 mm 1 mps 668 mmHg 90%
21:00 +22°C° 1.2 mm 1 mps 669 mmHg 90%
22:00 +22°C° 1.2 mm 1 mps 669 mmHg 91%
23:00 +22°C° 1.2 mm 1 mps 669 mmHg 92%

Tomorrow, 20 January, Wednesday

Time Temperature Precipitation Wind Pressure Humidity
00:00 +22°C° 1 mm 1 mps 669 mmHg 92%
01:00 +22°C° 1 mm 1 mps 668 mmHg 93%
02:00 +19°C° 1 mm 0 mps 668 mmHg 93%
03:00 +19°C° 1 mm 0 mps 668 mmHg 94%
04:00 +19°C° 1 mm 0 mps 668 mmHg 94%
05:00 +21°C° 1 mm 1 mps 668 mmHg 94%
06:00 +20°C° 0 mm 0 mps 669 mmHg 91%
07:00 +21°C° 0 mm 0 mps 670 mmHg 88%
08:00 +22°C° 0 mm 0 mps 670 mmHg 85%
09:00 +25°C° 1 mm 1 mps 670 mmHg 82%
10:00 +26°C° 1 mm 1 mps 670 mmHg 80%
11:00 +27°C° 1 mm 1 mps 670 mmHg 78%
12:00 +27°C° 2 mm 1 mps 670 mmHg 79%
13:00 +26°C° 2 mm 1 mps 669 mmHg 80%
14:00 +26°C° 2 mm 1 mps 669 mmHg 81%
15:00 +26°C° 1.6 mm 1 mps 669 mmHg 84%
16:00 +25°C° 1.6 mm 1 mps 669 mmHg 86%
17:00 +24°C° 1.6 mm 1 mps 668 mmHg 88%
18:00 +24°C° 2.1 mm 1 mps 669 mmHg 89%
19:00 +23°C° 2.1 mm 1 mps 669 mmHg 89%
20:00 +22°C° 2.1 mm 1 mps 669 mmHg 89%
21:00 +22°C° 1 mm 1 mps 669 mmHg 90%
22:00 +21°C° 1 mm 1 mps 669 mmHg 90%
23:00 +21°C° 1 mm 1 mps 669 mmHg 90%

Day after tomorrow, 21 January, Thursday

Time Temperature Precipitation Wind Pressure Humidity
00:00 +21°C° 0.5 mm 1 mps 669 mmHg 91%
01:00 +21°C° 0.5 mm 1 mps 669 mmHg 91%
02:00 +21°C° 0.5 mm 1 mps 669 mmHg 92%
03:00 +20°C° 0 mm 1 mps 669 mmHg 92%
04:00 +20°C° 0 mm 1 mps 669 mmHg 93%
05:00 +20°C° 0 mm 1 mps 669 mmHg 94%
06:00 +21°C° 0 mm 1 mps 669 mmHg 92%
07:00 +22°C° 0 mm 1 mps 670 mmHg 89%
08:00 +23°C° 0 mm 2 mps 670 mmHg 87%
09:00 +24°C° 0.1 mm 2 mps 670 mmHg 83%
10:00 +25°C° 0.1 mm 2 mps 670 mmHg 79%
11:00 +26°C° 0.1 mm 2 mps 670 mmHg 75%
12:00 +26°C° 0.7 mm 2 mps 670 mmHg 76%
13:00 +26°C° 0.7 mm 2 mps 669 mmHg 76%
14:00 +27°C° 0.7 mm 2 mps 669 mmHg 77%
15:00 +26°C° 0.7 mm 2 mps 669 mmHg 79%
16:00 +26°C° 0.7 mm 2 mps 669 mmHg 82%
17:00 +25°C° 0.7 mm 2 mps 669 mmHg 84%
18:00 +24°C° 0.3 mm 2 mps 669 mmHg 87%
19:00 +23°C° 0.3 mm 1 mps 669 mmHg 90%
20:00 +22°C° 0.3 mm 1 mps 669 mmHg 92%
21:00 +22°C° 0.4 mm 1 mps 669 mmHg 92%
22:00 +21°C° 0.4 mm 1 mps 669 mmHg 91%
23:00 +21°C° 0.4 mm 1 mps 669 mmHg 90%

22 January, Friday

Time Temperature Precipitation Wind Pressure Humidity
00:00 +21°C° 1.8 mm 1 mps 669 mmHg 92%
01:00 +21°C° 1.8 mm 1 mps 668 mmHg 94%
02:00 +20°C° 1.8 mm 1 mps 668 mmHg 95%
03:00 +19°C° 2.7 mm 2 mps 668 mmHg 95%
04:00 +19°C° 2.7 mm 2 mps 668 mmHg 96%
05:00 +18°C° 2.7 mm 3 mps 668 mmHg 96%
06:00 +19°C° 0.7 mm 2 mps 669 mmHg 92%
07:00 +19°C° 0.7 mm 2 mps 669 mmHg 89%
08:00 +20°C° 0.7 mm 2 mps 669 mmHg 86%
09:00 +21°C° 0 mm 2 mps 669 mmHg 81%
10:00 +24°C° 0 mm 2 mps 669 mmHg 76%
11:00 +25°C° 0 mm 3 mps 669 mmHg 71%
12:00 +25°C° 0.1 mm 3 mps 669 mmHg 71%
13:00 +25°C° 0.1 mm 3 mps 668 mmHg 72%
14:00 +25°C° 0.1 mm 3 mps 668 mmHg 72%
15:00 +25°C° 0 mm 3 mps 667 mmHg 75%
16:00 +25°C° 0 mm 2 mps 667 mmHg 77%
17:00 +24°C° 0 mm 2 mps 667 mmHg 80%
18:00 +23°C° 0.3 mm 2 mps 667 mmHg 84%
19:00 +22°C° 0.3 mm 1 mps 667 mmHg 87%
20:00 +21°C° 0.3 mm 1 mps 667 mmHg 91%
21:00 +21°C° 0.3 mm 1 mps 668 mmHg 92%
22:00 +21°C° 0.3 mm 1 mps 668 mmHg 92%
23:00 +20°C° 0.3 mm 1 mps 668 mmHg 93%

23 January, Saturday

Time Temperature Precipitation Wind Pressure Humidity
00:00 +20°C° 0 mm 1 mps 667 mmHg 93%
01:00 +20°C° 0 mm 1 mps 667 mmHg 93%
02:00 +20°C° 0 mm 1 mps 666 mmHg 93%
03:00 +20°C° 0 mm 1 mps 666 mmHg 92%
04:00 +20°C° 0 mm 1 mps 666 mmHg 92%
05:00 +20°C° 0 mm 1 mps 666 mmHg 92%
06:00 +21°C° 0 mm 1 mps 667 mmHg 88%
07:00 +21°C° 0 mm 2 mps 667 mmHg 85%
08:00 +23°C° 0 mm 2 mps 668 mmHg 82%
09:00 +24°C° 0.1 mm 2 mps 668 mmHg 79%
10:00 +25°C° 0.1 mm 2 mps 667 mmHg 77%
11:00 +25°C° 0.1 mm 3 mps 667 mmHg 74%
12:00 +26°C° 0.5 mm 3 mps 667 mmHg 74%
13:00 +26°C° 0.5 mm 3 mps 666 mmHg 73%
14:00 +27°C° 0.5 mm 2 mps 665 mmHg 72%
15:00 +26°C° 0.5 mm 2 mps 665 mmHg 76%
16:00 +26°C° 0.5 mm 2 mps 665 mmHg 80%
17:00 +25°C° 0.5 mm 2 mps 664 mmHg 83%
18:00 +24°C° 0 mm 2 mps 665 mmHg 85%
19:00 +23°C° 0 mm 2 mps 665 mmHg 87%
20:00 +21°C° 0 mm 2 mps 665 mmHg 89%
21:00 +22°C° 0 mm 1 mps 665 mmHg 90%
22:00 +21°C° 0 mm 1 mps 666 mmHg 91%
23:00 +21°C° 0 mm 1 mps 666 mmHg 91%

24 January, Sunday

Time Temperature Precipitation Wind Pressure Humidity
00:00 +21°C° 0.1 mm 1 mps 665 mmHg 91%
01:00 +20°C° 0.1 mm 2 mps 665 mmHg 91%
02:00 +20°C° 0.1 mm 2 mps 665 mmHg 91%
03:00 +20°C° 0.1 mm 2 mps 665 mmHg 91%
04:00 +20°C° 0.1 mm 2 mps 665 mmHg 90%
05:00 +20°C° 0.1 mm 2 mps 665 mmHg 90%
06:00 +21°C° 0.2 mm 3 mps 666 mmHg 88%
07:00 +22°C° 0.2 mm 4 mps 667 mmHg 85%
08:00 +23°C° 0.2 mm 4 mps 667 mmHg 82%
09:00 +23°C° 0.8 mm 5 mps 667 mmHg 81%
10:00 +25°C° 0.8 mm 5 mps 667 mmHg 79%
11:00 +26°C° 0.8 mm 5 mps 667 mmHg 78%
12:00 +25°C° 1 mm 5 mps 667 mmHg 78%
13:00 +25°C° 1 mm 5 mps 666 mmHg 79%
14:00 +25°C° 1 mm 4 mps 666 mmHg 79%
15:00 +23°C° 0.8 mm 4 mps 666 mmHg 82%
16:00 +24°C° 0.8 mm 3 mps 666 mmHg 85%
17:00 +22°C° 0.8 mm 3 mps 666 mmHg 87%
18:00 +21°C° 0.4 mm 3 mps 666 mmHg 89%
19:00 +21°C° 0.4 mm 3 mps 667 mmHg 90%
20:00 +20°C° 0.4 mm 2 mps 667 mmHg 92%
21:00 +20°C° 0.5 mm 3 mps 667 mmHg 92%
22:00 +20°C° 0.5 mm 3 mps 667 mmHg 92%
23:00 +20°C° 0.5 mm 3 mps 668 mmHg 92%
Show more

We Need Your Consent

Meteoprog and our Service Providers may store and access personal data such as cookies, device identifiers or other similar technologies on your device and process such data to personalise content and ads, as well as provide social media features and to analyse the traffic.

  • Store and/or access information on your device

    Cookies, device identifiers or other information can be stored or accessed on your device for the purposes indicated above.

  • Personalised ads and content, ad and content measurement, audience insights, and products development

    Ads and content can be personalised based on a profile. More data can be added to better personalise ads and content. Ad and content performance can be measured. Insights about the audience who saw the ads and content can be derived. Such data can be used to develop or improve user’s experience, systems and software.

By clicking ‘I Agree’ you will allow the use of indicated cookies, device identifiers, web beacons or other similar technologies. Your settings can be changed in the browser on your device.

For certain purposes, legitimate interests may be relied on, rather than consent. You can read more about this in our Privacy and Cookie Policy.